Flag for Japan Weather past 2 weeks in Kagoshima, Japan

Now
47 °F

Cool.


Feels Like: 46 °F
Forecast: 46 / 58 °F
Wind: 5 mph from North

Location: Kagoshima

Current Time: Mar 6, 2015 at 11:34:46 PM

Latest Report: Mar 6, 2015 at 11:00 PM


Visibility: N/A

Pressure: 30.11 "Hg

Humidity: 95%

Dew point: 46 °F

Location of KagoshimaLocation

Historic Weather in Kagoshima — Graph

°F

Kagoshima temperature yesterday

Maximum temperature yesterday: 58 °F (at 4:00 PM)
Minimum temperature yesterday: 42 °F (at 3:00 AM)
Average temperature yesterday: 49 °F

Past Weeks' High & Low Weather Summary

 TemperatureHumidityPressure
High63 °F (Feb 22, 12:00 PM)97% (Feb 22, 7:00 AM)30.31 "Hg (Feb 22, 7:00 AM)
Low38 °F (Feb 20, 8:00 AM)30% (Feb 27, 3:00 PM)29.67 "Hg (Mar 3, 5:00 PM)
Average51 °F69%30.08 "Hg
* Reported Feb 19 10:00 PM — Mar 6 10:00 PM, Kagoshima, Weather by CustomWeather, © 2015

Note: Actual official high and low records may vary slightly from our data, if they occured in-between our weather recording intervals... More about our weather records

Advertising

Kagoshima weather history for previous 24 hours

 ConditionsComfort  
Time TempWeatherWind HumidityBarometerVisibility
10:00 PM
Fri, Mar 6
48 °FCool.6 mph92%30.12 "HgN/A
9:00 PM49 °FOvercast.8 mph88%30.11 "Hg6 mi
8:00 PM48 °FCool.9 mph90%30.12 "HgN/A
7:00 PM48 °FCool.9 mph88%30.11 "HgN/A
6:00 PM47 °FLight rain. Overcast.5 mph94%30.11 "Hg6 mi
5:00 PM47 °FCool.8 mph94%30.11 "HgN/A
4:00 PM47 °FCool.7 mph93%30.09 "HgN/A
3:00 PM47 °FLight rain. Overcast.7 mph94%30.11 "Hg4 mi
2:00 PM47 °FCool.7 mph93%30.11 "HgN/A
1:00 PM47 °FCool.8 mph92%30.14 "HgN/A
12:00 PM47 °FLight rain. Overcast.7 mph91%30.16 "Hg5 mi
11:00 AM47 °FCool.10 mph91%30.17 "HgN/A
10:00 AM47 °FCool.7 mph91%30.19 "HgN/A
9:00 AM47 °FLight rain. Overcast.7 mph87%30.18 "Hg6 mi
8:00 AM47 °FCool.8 mph87%30.17 "HgN/A
7:00 AM47 °FCool.6 mph89%30.16 "HgN/A
6:00 AM46 °FLight rain. Overcast.10 mph87%30.14 "Hg9 mi
5:00 AM47 °FCool.8 mph85%30.14 "HgN/A
3:00 AM50 °FLight rain. Overcast.9 mph74%30.12 "Hg9 mi
2:00 AM50 °FCool.9 mph73%30.14 "HgN/A
1:00 AM51 °FCool.6 mph67%30.13 "HgN/A
12:00 AM52 °FCool.3 mph66%30.14 "HgN/A
11:00 PM
Thu, Mar 5
52 °FCool.3 mph62%30.16 "HgN/A
Weather by CustomWeather, © 2015

See weather overviewHow to use our weather pages